Back to catalog

COSMOS 2603

AliveMilitaryPO
NORAD 67677·PAYLOAD·🇷🇺 Russia

Launched Feb 5, 2026 from Plesetsk Cosmodrome

Loading…

Next Passes (next 24 hours)

TLE

FreshSource: Space-Track

Epoch: Sep 14, 2026, 14:15 UTC

1 67677U 26023D   26257.59426694  .00002593  00000-0  10188-3 0  9993
2 67677  96.6217 309.0334 0016790 167.7152 192.4502 15.26306832 33634

Track COSMOS 2603 in real time with AllMySat

Download on the App Store